When you browse on this site, cookies collect data to enhance your experience and personalize the content and advertising you see.
Visit our Privacy Policy to learn more. By continuing to use the site, you agree to this use of cookies and data.
  • In Spain
  • List of Countries
  • For 7 days
  • Water Temperature
  • Weather Map
  • Weather Widgets
  • user-avatar
    Login

    Hourly Weather Troickoe-Bachurino

    Today, 20 August, Tuesday

    Time Temperature Precipitation Wind Pressure Humidity
    00:00 +16°C° 0 mm 0 mps 752 mmHg 85%
    01:00 +15°C° 0 mm 0 mps 752 mmHg 86%
    02:00 +15°C° 0 mm 0 mps 752 mmHg 86%
    03:00 +15°C° 0 mm 0 mps 752 mmHg 85%
    04:00 +15°C° 0 mm 0 mps 752 mmHg 85%
    05:00 +15°C° 0 mm 0 mps 753 mmHg 85%
    06:00 +17°C° 0 mm 0 mps 753 mmHg 80%
    07:00 +19°C° 0 mm 0 mps 753 mmHg 75%
    08:00 +22°C° 0 mm 1 mps 753 mmHg 70%
    09:00 +24°C° 0 mm 1 mps 753 mmHg 66%
    10:00 +25°C° 0 mm 1 mps 753 mmHg 62%
    11:00 +26°C° 0 mm 1 mps 753 mmHg 58%
    12:00 +27°C° 0 mm 1 mps 753 mmHg 57%
    13:00 +27°C° 0 mm 1 mps 753 mmHg 55%
    14:00 +27°C° 0 mm 1 mps 753 mmHg 54%
    15:00 +27°C° 0 mm 1 mps 753 mmHg 58%
    16:00 +27°C° 0 mm 1 mps 753 mmHg 62%
    17:00 +27°C° 0 mm 1 mps 753 mmHg 65%
    18:00 +25°C° 0 mm 1 mps 753 mmHg 68%
    19:00 +23°C° 0 mm 1 mps 753 mmHg 71%
    20:00 +22°C° 0 mm 1 mps 753 mmHg 74%
    21:00 +21°C° 0 mm 1 mps 753 mmHg 75%
    22:00 +21°C° 0 mm 1 mps 753 mmHg 76%
    23:00 +20°C° 0 mm 1 mps 753 mmHg 78%

    Tomorrow, 21 August, Wednesday

    Time Temperature Precipitation Wind Pressure Humidity
    00:00 +20°C° 0 mm 1 mps 754 mmHg 79%
    01:00 +20°C° 0 mm 1 mps 754 mmHg 81%
    02:00 +19°C° 0 mm 1 mps 754 mmHg 82%
    03:00 +19°C° 0 mm 1 mps 754 mmHg 82%
    04:00 +19°C° 0 mm 1 mps 754 mmHg 83%
    05:00 +19°C° 0 mm 1 mps 754 mmHg 83%
    06:00 +21°C° 0 mm 1 mps 754 mmHg 79%
    07:00 +22°C° 0 mm 1 mps 754 mmHg 74%
    08:00 +24°C° 0 mm 1 mps 754 mmHg 70%
    09:00 +25°C° 0 mm 1 mps 754 mmHg 66%
    10:00 +25°C° 0 mm 0 mps 754 mmHg 63%
    11:00 +26°C° 0 mm 0 mps 754 mmHg 59%
    12:00 +28°C° 0 mm 1 mps 754 mmHg 58%
    13:00 +29°C° 0 mm 1 mps 754 mmHg 56%
    14:00 +29°C° 0 mm 1 mps 753 mmHg 55%
    15:00 +29°C° 0 mm 1 mps 753 mmHg 59%
    16:00 +29°C° 0 mm 1 mps 753 mmHg 62%
    17:00 +28°C° 0 mm 1 mps 752 mmHg 66%
    18:00 +27°C° 0 mm 1 mps 752 mmHg 69%
    19:00 +25°C° 0 mm 1 mps 752 mmHg 73%
    20:00 +23°C° 0 mm 1 mps 752 mmHg 76%
    21:00 +23°C° 0 mm 1 mps 752 mmHg 78%
    22:00 +22°C° 0 mm 1 mps 752 mmHg 79%
    23:00 +22°C° 0 mm 1 mps 752 mmHg 81%

    Day after tomorrow, 22 August, Thursday

    Time Temperature Precipitation Wind Pressure Humidity
    00:00 +21°C° 0 mm 1 mps 752 mmHg 82%
    01:00 +21°C° 0 mm 1 mps 752 mmHg 84%
    02:00 +20°C° 0 mm 1 mps 752 mmHg 86%
    03:00 +20°C° 0 mm 1 mps 752 mmHg 86%
    04:00 +20°C° 0 mm 1 mps 751 mmHg 87%
    05:00 +20°C° 0 mm 1 mps 751 mmHg 88%
    06:00 +21°C° 0 mm 1 mps 751 mmHg 83%
    07:00 +23°C° 0 mm 1 mps 751 mmHg 77%
    08:00 +25°C° 0 mm 1 mps 751 mmHg 72%
    09:00 +26°C° 0 mm 1 mps 751 mmHg 69%
    10:00 +27°C° 0 mm 1 mps 751 mmHg 65%
    11:00 +28°C° 0 mm 1 mps 751 mmHg 62%
    12:00 +28°C° 0 mm 1 mps 751 mmHg 60%
    13:00 +29°C° 0 mm 1 mps 751 mmHg 59%
    14:00 +29°C° 0 mm 1 mps 751 mmHg 58%
    15:00 +28°C° 0.6 mm 2 mps 751 mmHg 65%
    16:00 +27°C° 0.6 mm 3 mps 751 mmHg 72%
    17:00 +26°C° 0.6 mm 4 mps 751 mmHg 79%
    18:00 +23°C° 0.4 mm 4 mps 751 mmHg 84%
    19:00 +21°C° 0.4 mm 4 mps 752 mmHg 89%
    20:00 +19°C° 0.4 mm 5 mps 752 mmHg 94%
    21:00 +19°C° 0.1 mm 4 mps 752 mmHg 94%
    22:00 +18°C° 0.1 mm 4 mps 752 mmHg 94%
    23:00 +18°C° 0.1 mm 4 mps 753 mmHg 94%

    23 August, Friday

    Time Temperature Precipitation Wind Pressure Humidity
    00:00 +17°C° 0 mm 4 mps 753 mmHg 94%
    01:00 +17°C° 0 mm 4 mps 753 mmHg 94%
    02:00 +17°C° 0 mm 4 mps 753 mmHg 93%
    03:00 +15°C° 0 mm 4 mps 753 mmHg 93%
    04:00 +15°C° 0 mm 4 mps 753 mmHg 93%
    05:00 +14°C° 0 mm 4 mps 753 mmHg 93%
    06:00 +15°C° 0 mm 4 mps 754 mmHg 90%
    07:00 +17°C° 0 mm 4 mps 754 mmHg 86%
    08:00 +17°C° 0 mm 5 mps 754 mmHg 83%
    09:00 +19°C° 0 mm 5 mps 754 mmHg 78%
    10:00 +20°C° 0 mm 4 mps 754 mmHg 74%
    11:00 +21°C° 0 mm 4 mps 754 mmHg 70%
    12:00 +22°C° 0 mm 4 mps 754 mmHg 68%
    13:00 +22°C° 0 mm 4 mps 754 mmHg 66%
    14:00 +23°C° 0 mm 4 mps 754 mmHg 64%
    15:00 +23°C° 0 mm 4 mps 754 mmHg 66%
    16:00 +22°C° 0 mm 3 mps 754 mmHg 69%
    17:00 +22°C° 0 mm 3 mps 754 mmHg 72%
    18:00 +20°C° 0 mm 2 mps 754 mmHg 74%
    19:00 +18°C° 0 mm 2 mps 754 mmHg 76%
    20:00 +17°C° 0 mm 2 mps 754 mmHg 77%
    21:00 +16°C° 0 mm 2 mps 754 mmHg 79%
    22:00 +16°C° 0 mm 2 mps 755 mmHg 81%
    23:00 +15°C° 0 mm 2 mps 755 mmHg 82%

    24 August, Saturday

    Time Temperature Precipitation Wind Pressure Humidity
    00:00 +15°C° 0 mm 2 mps 755 mmHg 83%
    01:00 +14°C° 0 mm 2 mps 755 mmHg 84%
    02:00 +14°C° 0 mm 2 mps 755 mmHg 85%
    03:00 +13°C° 0 mm 2 mps 755 mmHg 86%
    04:00 +13°C° 0 mm 2 mps 755 mmHg 87%
    05:00 +13°C° 0 mm 2 mps 755 mmHg 87%
    06:00 +14°C° 0 mm 2 mps 756 mmHg 83%
    07:00 +16°C° 0 mm 3 mps 756 mmHg 79%
    08:00 +18°C° 0 mm 3 mps 756 mmHg 74%
    09:00 +19°C° 0 mm 3 mps 756 mmHg 68%
    10:00 +20°C° 0 mm 3 mps 756 mmHg 61%
    11:00 +21°C° 0 mm 3 mps 756 mmHg 55%
    12:00 +23°C° 0 mm 2 mps 756 mmHg 52%
    13:00 +23°C° 0 mm 2 mps 756 mmHg 50%
    14:00 +24°C° 0 mm 2 mps 755 mmHg 48%
    15:00 +23°C° 0 mm 2 mps 755 mmHg 52%
    16:00 +23°C° 0 mm 1 mps 755 mmHg 57%
    17:00 +23°C° 0 mm 1 mps 755 mmHg 61%
    18:00 +21°C° 0 mm 1 mps 755 mmHg 63%
    19:00 +19°C° 0 mm 1 mps 755 mmHg 66%
    20:00 +15°C° 0 mm 0 mps 755 mmHg 68%
    21:00 +16°C° 0 mm 1 mps 755 mmHg 69%
    22:00 +16°C° 0 mm 1 mps 755 mmHg 70%
    23:00 +15°C° 0 mm 1 mps 755 mmHg 71%

    25 August, Sunday

    Time Temperature Precipitation Wind Pressure Humidity
    00:00 +15°C° 0 mm 1 mps 755 mmHg 72%
    01:00 +15°C° 0 mm 2 mps 755 mmHg 74%
    02:00 +14°C° 0 mm 2 mps 755 mmHg 75%
    03:00 +14°C° 0 mm 2 mps 755 mmHg 78%
    04:00 +14°C° 0 mm 2 mps 755 mmHg 80%
    05:00 +13°C° 0 mm 1 mps 755 mmHg 83%
    06:00 +15°C° 0 mm 2 mps 755 mmHg 80%
    07:00 +17°C° 0 mm 2 mps 755 mmHg 76%
    08:00 +19°C° 0 mm 2 mps 755 mmHg 73%
    09:00 +20°C° 0 mm 2 mps 755 mmHg 69%
    10:00 +21°C° 0 mm 3 mps 754 mmHg 64%
    11:00 +22°C° 0 mm 3 mps 754 mmHg 59%
    12:00 +24°C° 0 mm 3 mps 754 mmHg 57%
    13:00 +24°C° 0 mm 3 mps 754 mmHg 56%
    14:00 +25°C° 0 mm 3 mps 753 mmHg 54%
    15:00 +24°C° 0 mm 3 mps 753 mmHg 58%
    16:00 +24°C° 0 mm 2 mps 753 mmHg 62%
    17:00 +24°C° 0 mm 2 mps 752 mmHg 66%
    18:00 +21°C° 0 mm 2 mps 752 mmHg 70%
    19:00 +19°C° 0 mm 2 mps 753 mmHg 74%
    20:00 +17°C° 0 mm 2 mps 753 mmHg 78%
    21:00 +17°C° 0 mm 2 mps 753 mmHg 81%
    22:00 +16°C° 0 mm 2 mps 753 mmHg 84%
    23:00 +16°C° 0 mm 2 mps 753 mmHg 86%
    Show more